Location: Berlin
(33.6738°N, 81.3037°W)
Time: 19:49:35
(UTC+00:00)

Daily predictions for brighter satellites

Satellite Brightness Start Highest point End
(mag) Time Altitude Azimuth Time Altitude Azimuth Time Altitude Azimuth
Timation 2 Rocket 4.5 22:34:15 10° SSW 22:41:05 78° WNW 22:47:59 10° NNE
Cosmos 2278 Rocket 2.4 22:38:16 10° SSW 22:43:55 82° WNW 22:49:36 10° NNE
Cosmos 2082 Rocket 3.4 22:43:01 10° N 22:47:08 21° ENE 22:51:15 10° ESE
ARIANE 5 R/B 2.7 22:42:59 10° SE 22:47:44 48° ENE 22:52:32 10° N
Cosmos 2151 Rocket 4.5 22:44:04 10° SSE 22:47:54 29° E 22:51:45 10° NNE
Cosmos 2369 Rocket 3.9 22:52:07 10° ESE 22:53:34 11° E 22:55:03 10° E
BlueWalker 3 2.5 22:50:24 10° SSW 22:53:45 36° SE 22:57:06 10° ENE
OAO 3 Copernicus 4.4 22:48:49 10° W 22:53:52 84° SSW 22:58:55 10° ESE
Okean 1 Rocket 4.3 22:50:47 10° SE 22:54:02 20° E 22:57:16 10° NE
OAO 3 Rocket 3.1 22:50:35 10° W 22:55:17 75° N 22:59:52 10° E
ATLAS 5 CENTAUR R/B 2.1 22:50:45 10° NNW 22:55:39 88° WSW 23:01:42 10° SSE
Cosmos 1190 Rocket 4.0 22:52:09 10° S 22:57:22 65° ESE 23:02:37 10° NNE
Cosmos 1464 Rocket 4.3 22:53:25 10° SSE 22:59:22 45° E 23:05:16 10° NNE
Cosmos 1869 3.6 22:56:20 10° SSW 22:59:49 59° W 23:03:17 10° N
SKYMED 2 4.0 22:59:38 10° NNE 23:03:43 40° E 23:07:47 10° S
Cosmos 1656 Rocket 4.3 23:01:41 10° SSE 23:06:35 34° ESE 23:11:34 10° NE
SJ 16-02 1.3 23:03:52 10° S 23:08:06 64° ESE 23:12:23 10° NNE
Cosmos 1954 Rocket 4.0 23:04:27 10° S 23:09:41 68° ESE 23:14:54 10° NNE
SMAP 3.4 23:06:37 10° S 23:11:14 72° WSW 23:15:53 10° NNW
YAOGAN 1 3.8 23:08:40 10° ESE 23:11:44 20° ENE 23:14:49 10° NNE
Cosmos 2034 Rocket 4.4 23:07:56 10° SSE 23:13:32 38° E 23:19:11 10° NNE
IRS-P3 4.1 23:09:31 10° SSE 23:14:45 63° ENE 23:20:01 10° N
USA 215 3.6 23:08:37 10° ESE 23:14:47 46° NE 23:20:58 10° NNW
ERS-1 4.5 23:10:31 10° SSE 23:15:39 78° ENE 23:20:46 10° N
Cosmos 968 Rocket 4.5 23:13:23 10° SSE 23:17:30 25° E 23:20:17 16° NE
OAO 2 Rocket 3.3 23:14:33 10° W 23:19:34 83° N 23:23:30 17° E
Cosmos 1833 Rocket 4.4 23:16:37 10° NW 23:21:43 36° WSW 23:26:47 10° SSW
Cosmos 1932 4.5 23:16:50 10° SSW 23:23:04 71° ESE 23:29:29 10° NNE
Landsat 7 4.0 23:18:41 10° S 23:23:18 75° WSW 23:27:58 10° NNW
COSMOS 2406 4.3 23:19:08 10° N 23:23:30 22° ENE 23:25:32 18° E
SPOT 1/Viking Rocket 3.8 23:19:11 10° SE 23:24:02 44° ENE 23:28:56 10° N
RESURS DK-1 2.1 23:20:17 10° NNW 23:24:17 78° ENE 23:28:15 10° SSE
Cosmos 1400 Rocket 2.5 23:20:40 10° S 23:24:27 74° E 23:28:15 10° NNE
SJ-6F 4.2 23:21:14 10° SSE 23:25:07 81° ENE 23:29:03 10° N
Resurs 1-3 4.4 23:23:01 10° SE 23:26:39 27° ENE 23:30:17 10° NNE
SJ-12 4.3 23:23:09 10° S 23:26:54 61° W 23:30:39 10° NNW
Cosmos 540 Rocket 3.4 23:23:09 10° NNW 23:28:17 89° ENE 23:33:23 10° SSE
Spot 4 Rocket 4.2 23:29:24 10° SE 23:34:12 44° ENE 23:39:01 10° N
Helios 1A Rocket 2.3 23:31:25 14° NNE 23:34:15 66° ESE 23:37:35 10° S
DELTA 2 R/B (1) 3.5 23:31:37 10° WSW 23:37:11 87° NNW 23:40:20 27° ENE
Cosmos 1763 Rocket 4.0 23:32:27 10° NNW 23:37:32 60° WSW 23:42:31 10° S
Cosmos 304 Rocket 3.9 23:33:24 10° SSW 23:38:06 74° WNW 23:42:50 10° NNE
Cosmos 371 Rocket 3.5 23:35:45 10° SSW 23:40:31 73° WNW 23:45:20 10° NNE
Centaur AC-119 4.2 23:36:46 10° WSW 23:41:36 41° S 23:46:47 16° ESE
Okean 2 Rocket 3.1 23:37:52 10° S 23:42:16 81° W 23:46:39 10° N
Cosmos 1536 Rocket 3.4 23:40:09 10° N 23:44:34 74° E 23:48:54 10° SSE
Meteor 2-3 Rocket 4.1 23:42:53 10° N 23:48:08 38° ENE 23:53:18 10° SE
SJ-7 4.0 23:47:59 10° SSE 23:51:37 62° ENE 23:55:15 10° N
